Location: Fiume de Mogoro
(39.8167°N, 8.5667°E)
Time: 02:37:03
(UTC+00:00)

Daily predictions for brighter satellites

Satellite Brightness Start Highest point End
(mag) Time Altitude Azimuth Time Altitude Azimuth Time Altitude Azimuth
Cosmos 724 4.2 00:08:27 81° NE 00:08:27 81° NE 00:14:03 10° NNE
Resurs 1-4 Rocket 4.2 00:06:40 10° NE 00:09:47 16° E 00:10:24 15° E
Meteor 1-15 Rocket 4.2 00:05:24 10° N 00:10:46 80° N 00:10:46 80° N
COSMOS 2406 4.0 00:12:11 40° E 00:12:11 40° E 00:17:16 10° NE
USA 59 Rocket 2.3 00:08:22 10° NW 00:09:32 18° WNW 00:09:32 18° WNW
Meteor 1-12 Rocket 4.4 00:06:48 10° N 00:12:41 70° E 00:12:56 69° E
Cosmos 1697 Rocket 2.7 00:07:44 10° NNW 00:12:58 77° N 00:12:58 77° N
Cosmos 1980 Rocket 3.0 00:13:31 10° NNW 00:19:00 46° ENE 00:20:32 37° ESE
Cosmos 1607 4.1 00:23:16 59° W 00:24:06 64° NW 00:30:34 10° NNE
Meteor 1-22 Rocket 4.3 00:18:50 10° NNW 00:23:27 64° NW 00:23:27 64° NW
Meteor 1-21 4.2 00:27:29 72° ESE 00:27:33 72° E 00:33:14 10° NNE
Helios 1A Rocket 4.2 00:35:43 35° N 00:35:43 35° N 00:38:02 10° NNW
Cosmos 2228 Rocket 3.9 00:38:49 45° NNW 00:38:49 45° NNW 00:42:10 10° N
Cosmos 1707 Rocket 4.3 00:40:48 48° NNW 00:40:48 48° NNW 00:44:11 10° N
Cosmos 2251 Rocket 4.2 00:46:23 43° WNW 00:46:23 43° WNW 00:51:22 10° N
Cosmos 2082 Rocket 2.1 00:50:37 75° WSW 00:50:58 79° WNW 00:56:44 10° NNE
Meteor 2-20 4.4 00:46:21 10° NNW 00:52:27 66° W 00:52:55 64° WSW
Cosmos 676 Rocket 3.9 00:52:54 76° SE 00:53:02 76° ESE 00:58:22 10° NNE
Cosmos 1833 Rocket 4.4 00:58:49 18° WNW 01:00:22 20° NW 01:04:29 10° N
Cosmos 1954 Rocket 3.9 01:01:04 73° W 01:01:17 74° WNW 01:06:37 10° NNE
Cosmos 1190 Rocket 4.3 01:02:08 52° WNW 01:02:19 53° WNW 01:07:31 10° N
MOZ.5/SAFIR/RUBIN 5/SL-8 3.7 01:02:50 87° N 01:02:50 87° N 01:07:31 10° NNW
Okean 1-7 3.2 01:03:32 67° NNE 01:03:32 67° NNE 01:07:17 10° N
Meteor 2-10 Rocket 4.1 00:57:56 10° NNW 01:03:23 47° W 01:03:23 47° W
Okean 2 3.9 01:04:37 56° NNE 01:04:37 56° NNE 01:07:51 10° N
ADEOS II 3.4 01:00:16 10° NE 01:04:55 31° E 01:06:30 26° SE
Cosmos 44 Rocket 4.0 01:01:21 10° NW 01:04:42 40° WNW 01:04:42 40° WNW
SJ 16-02 3.8 01:05:16 11° ESE 01:06:37 12° E 01:08:24 10° ENE
Cosmos 468 Rocket 4.0 01:01:42 10° NNW 01:07:01 79° ENE 01:07:58 60° SE
NOSS 3-4 (A) 3.8 01:02:12 10° NW 01:09:21 83° WSW 01:15:17 20° SSE
NOSS 3-4 (C) 3.8 01:02:15 10° NW 01:09:24 83° WSW 01:15:32 19° SSE
Cosmos 1908 Rocket 3.8 01:06:55 10° N 01:11:20 62° E 01:11:37 60° ESE
Cosmos 381 Rocket 4.4 01:05:08 10° NNW 01:11:34 77° WSW 01:13:11 52° S
IDEFIX/ARIANE 42P 2.5 01:10:01 10° NNE 01:15:18 84° ESE 01:16:06 65° S
BREEZE-M DEB (TANK) 3.9 01:12:17 11° WNW 01:15:51 86° SW 01:29:56 10° SE
Cosmos 1745 Rocket 3.9 01:17:54 49° S 01:19:43 83° E 01:25:59 10° N
Cosmos 1763 Rocket 3.8 01:16:28 10° NNW 01:21:16 49° W 01:21:16 49° W
CZ-2C R/B 3.8 01:16:50 10° NNE 01:22:33 54° E 01:24:41 35° SSE
ATLAS CENTAUR R/B 4.0 01:10:31 10° NW 01:23:05 63° WSW 01:28:40 24° SSE
ALOS 4.1 01:20:49 10° NE 01:24:34 24° E 01:26:39 18° SE
USA 234 3.9 01:26:06 34° WSW 01:26:06 34° WSW 01:30:50 10° WNW
CZ-2D R/B 2.2 01:20:17 10° NNE 01:25:47 77° ESE 01:27:13 50° S
Cosmos 1346 Rocket 4.2 01:28:44 10° NNW 01:30:55 26° NW 01:30:55 26° NW
Cosmos 1242 Rocket 3.8 01:33:00 29° ENE 01:33:00 29° ENE 01:34:59 10° NNE
COBE Rocket 3.9 01:28:10 10° N 01:32:58 63° WNW 01:33:40 56° WSW
FENGYUN 3A 3.9 01:33:59 10° NNE 01:39:19 62° E 01:41:29 35° SSE
Meteor 1-28 Rocket 4.4 01:40:41 25° ESE 01:42:11 38° ENE 01:45:31 10° N
AQUA 4.2 01:38:05 10° NNE 01:42:44 56° E 01:44:24 36° SSE
Cosmos 1953 2.9 01:42:08 10° NNW 01:45:20 42° WNW 01:45:20 42° WNW
Cosmos 2322 Rocket 3.7 01:41:47 10° N 01:46:58 36° ENE 01:52:08 10° SE
Cosmos 1703 Rocket 3.9 01:47:02 45° W 01:47:16 46° W 01:51:32 10° N
CZ-2C R/B 2.4 01:45:43 40° S 01:47:37 77° WSW 01:52:47 10° NNW
Nadezhda 1 Rocket 4.1 01:41:35 10° NNW 01:47:54 64° W 01:50:30 36° SSW
Cosmos 540 Rocket 4.0 01:44:11 10° NW 01:48:53 38° W 01:48:53 38° W
EXPRESS MD2 2.9 01:49:52 69° NNE 01:49:52 69° NNE 01:53:33 10° NE
Resurs 1-4 Rocket 2.2 01:44:47 10° N 01:49:57 61° WNW 01:51:28 43° SW
COSMOS 2406 4.4 01:54:13 24° W 01:56:17 30° WNW 02:01:17 10° N
Cosmos 1850 Rocket 4.0 01:55:19 42° SSW 01:57:07 76° WNW 02:02:25 10° NNE
DELTA 2 R/B (1) 3.5 01:56:34 28° W 01:59:38 89° S 02:05:12 10° E
Cosmos 1741 Rocket 3.9 01:58:29 41° SSW 02:00:19 75° WNW 02:05:35 10° NNE
Cosmos 1980 Rocket 3.4 01:58:10 10° NW 02:02:15 24° W 02:02:15 24° W
SAR-Lupe-4 3.9 01:59:29 10° NNE 02:03:01 58° ESE 02:04:02 40° SSE
SL-16 R/B 2.6 01:58:57 10° SSE 02:05:11 80° ENE 02:11:29 10° NNW
MSX 4.4 02:00:27 10° N 02:05:50 43° WNW 02:08:03 30° WSW
SL-24 R/B 4.4 02:05:26 23° S 02:08:36 86° E 02:13:27 10° N
SL-4 R/B 4.3 02:07:18 13° SSE 02:08:59 15° SE 02:11:33 10° E
Cosmos 1315 Rocket 4.1 02:11:23 23° WNW 02:11:31 24° WNW 02:14:41 10° NNW
Cosmos 1455 3.6 02:10:04 10° NW 02:11:55 20° WNW 02:11:55 20° WNW
Cosmos 1300 Rocket 3.5 02:08:45 10° NNW 02:13:02 65° W 02:14:43 35° SSW
Genesis I 3.1 02:16:09 42° S 02:17:05 62° ESE 02:20:36 10° NE
Cosmos 2098 Rocket 3.9 02:12:08 10° N 02:17:12 68° E 02:23:12 10° SSE
Lacrosse 5 rocket 2.8 02:16:58 10° NNW 02:20:45 37° NE 02:24:21 10° ESE
Cosmos 1709 Rocket 4.4 02:19:08 27° SW 02:22:13 47° WNW 02:28:19 10° N
Cosmos 2181 Rocket 4.1 02:16:25 10° N 02:22:49 79° E 02:29:06 10° S
SAR-Lupe-1 3.9 02:19:23 10° N 02:22:58 80° WNW 02:24:17 37° SSW
BREEZE-M DEB (TANK) 4.4 02:22:34 10° NW 02:25:15 17° N 02:26:59 10° NE
Timation 1 Rocket 4.4 02:22:08 27° SW 02:25:27 65° WNW 02:31:23 10° NNE
Cosmos 968 Rocket 3.5 02:24:00 29° SW 02:26:32 61° WNW 02:31:36 10° NNE
Cosmos 1378 Rocket 4.0 02:25:08 15° S 02:28:36 57° E 02:32:49 10° NNE
SL-16 R/B 2.1 02:23:43 10° NNW 02:29:21 66° WSW 02:34:57 10° S
CZ-2C R/B 3.7 02:26:41 10° NNE 02:31:04 36° E 02:35:20 10° SSE
Cosmos 841 Rocket 4.2 02:30:31 10° NW 02:35:12 34° W 02:37:46 22° SSW
Meteor 1-24 Rocket 3.8 02:31:04 18° SSW 02:35:44 80° W 02:41:48 10° N
Cosmos 2082 Rocket 4.4 02:33:25 10° WNW 02:36:00 13° NW 02:38:36 10° NNW
METEOR-M 4.5 02:31:29 10° NNE 02:36:49 64° ESE 02:42:05 10° S
Cosmos 1892 3.6 02:36:28 10° SSE 02:39:47 41° E 02:43:07 10° NNE
Cosmos 1408 3.4 02:39:55 23° W 02:40:09 23° WNW 02:42:38 10° NNW
Geosat 4.0 02:39:11 10° SSE 02:44:12 87° ENE 02:49:14 10° NNW
SJ 16-02 1.6 02:42:02 23° SW 02:44:26 52° WNW 02:48:40 10° N
ADEOS II 3.1 02:39:53 10° N 02:44:26 31° WNW 02:47:23 18° WSW
Cosmos 2219 Rocket 3.5 02:43:25 10° N 02:48:49 44° ENE 02:54:11 10° SE
OAO 3 Rocket 3.5 02:49:22 18° WSW 02:52:48 48° S 02:57:28 10° ESE
Cosmos 1825 2.6 02:49:32 10° S 02:52:51 53° E 02:56:12 10° NNE
Cosmos 2360 Rocket 2.2 02:49:58 10° NNW 02:55:41 84° WSW 03:01:21 10° SSE
SL-27 R/B 3.0 02:55:22 22° WSW 02:56:26 29° WNW 02:58:58 10° N
Cosmos 405 Rocket 3.3 02:53:28 10° N 02:57:00 55° E 03:00:33 10° SSE
Cosmos 1814 Rocket 4.0 02:52:29 10° NNW 02:57:39 65° WSW 03:02:50 10° S
Tiangong 0.3 02:57:55 10° S 02:59:33 14° SE 03:01:10 10° ESE
Hubble Space Telescope 2.8 03:00:42 11° SSW 03:00:42 11° SSW 03:01:28 10° S
ALOS 3.2 02:57:40 10° N 03:01:46 32° WNW 03:04:58 15° SW
SL-8 R/B 3.6 02:58:33 10° WNW 03:03:18 67° SW 03:08:03 10° SE
Meteor 2-5 Rocket 4.3 02:59:00 14° SW 03:03:48 46° WNW 03:09:30 10° N
CZ-2D R/B 4.1 03:02:07 10° NNW 03:05:05 15° WNW 03:08:01 10° W
Cosmos 2221 Rocket 3.6 03:01:28 10° SSW 03:05:58 69° W 03:10:31 10° N
CZ-4 R/B 3.9 03:04:29 10° N 03:09:06 61° WNW 03:13:46 10° SSW
Sich 1 Rocket 3.6 03:10:31 10° NNW 03:14:58 61° W 03:19:22 10° S
DMSP B5D2-2 4.3 03:11:20 10° SSE 03:16:32 78° ENE 03:21:47 10° N
ASTEX 1 3.5 03:12:15 10° S 03:17:12 87° E 03:22:09 10° N
Cosmos 2333 Rocket 2.2 03:12:08 10° NNW 03:17:46 62° WSW 03:23:24 10° S
IRS-1D 3.6 03:14:50 10° NNE 03:20:12 88° WNW 03:25:30 10° SSW
YAOGAN 6 2.3 03:17:13 10° N 03:20:31 66° WNW 03:23:46 10° SSW
Cosmos 2151 Rocket 3.9 03:17:29 10° NNW 03:21:47 46° W 03:26:01 10° SSW
Cosmos 2074 Rocket 4.4 03:16:30 10° SSW 03:22:26 46° WNW 03:28:24 10° N
Cosmos 2322 Rocket 2.9 03:25:57 10° NW 03:30:53 32° WSW 03:35:48 10° SSW
Envisat 3.7 03:28:36 10° N 03:33:15 37° WNW 03:37:52 10° SW
Cosmos 839 Rocket 4.1 03:28:01 10° NW 03:34:48 61° WSW 03:40:50 10° SSE
Okean 2 Rocket 3.7 03:31:24 10° NNW 03:35:24 35° W 03:39:23 10° SSW
Cosmos 2297 Rocket 3.9 03:31:31 10° SSE 03:36:25 32° ESE 03:41:21 10° NE
Cosmos 1455 Rocket 3.9 03:32:47 10° N 03:37:05 55° E 03:41:22 10° SSE
Cosmos 1328 3.8 03:34:38 10° SSW 03:38:21 55° W 03:42:06 10° N
CZ-3 R/B 4.4 02:58:16 10° W 03:39:14 45° SW 03:50:35 10° SE
USA 215 4.2 03:34:00 10° ENE 03:40:11 43° SE 03:46:19 10° SSW
